Dewpoint
59 60 60 60 61 61 61 62 62 62 61 60 59 59 59 58 55 35 31 40 51 56 56 45 35 33 32 30 31 29 19 15 13 14 16 19 17 20 20 19 18 28 40 46 57
59 59 60 60 60 61 61 61 61 62 61 60 59 58 58 57 42 35 43 53 53 55 40 34 30 32 27 28 30 25 20 16 16 17 18 20 19 19 18 17 17 33 51 54 58
60 59 59 59 60 60 61 61 61 61 61 60 59 58 57 53 39 36 50 53 53 52 44 40 38 31 27 25 26 25 19 19 25 23 24 22 21 23 18 17 17 18 49 55 56
59 59 59 59 59 60 60 60 61 61 61 60 58 57 56 44 29 39 52 51 51 45 41 36 30 26 25 20 27 19 23 22 28 29 23 20 23 21 21 17 21 19 52 55 55
59 59 59 59 59 60 60 60 60 61 61 60 57 55 46 36 36 41 49 44 41 40 37 34 27 27 22 23 26 21 23 26 28 26 23 25 23 22 23 23 22 26 53 53 53
59 59 59 59 59 60 60 60 60 60 60 59 56 54 38 32 40 42 40 37 38 38 37 35 31 32 22 25 26 26 26 24 25 24 26 25 24 26 23 25 24 23 43 50 51
58 59 59 59 59 59 59 59 60 60 60 57 54 40 36 34 38 38 38 36 38 39 34 39 38 29 26 24 27 27 23 24 24 25 25 26 23 24 25 24 25 24 23 33 34
58 59 59 59 59 59 59 59 60 59 58 55 54 41 35 40 36 37 38 37 38 39 38 38 35 32 29 28 31 26 28 26 26 26 27 24 22 21 27 22 22 24 22 22 24
58 59 59 59 59 58 58 59 58 56 55 54 42 37 33 43 34 37 38 34 38 38 38 34 35 32 34 30 29 29 23 26 26 26 26 24 22 23 24 23 21 19 19 22 24
58 58 58 58 58 57 58 58 56 54 49 44 42 41 33 30 34 35 39 38 34 35 38 35 34 30 32 31 24 25 26 25 23 24 24 24 24 25 26 24 23 22 20 22 24
58 58 58 58 58 57 54 48 43 37 44 40 39 40 39 36 37 36 39 37 34 32 28 34 28 26 26 32 32 31 26 23 23 26 25 25 25 26 26 27 26 25 23 24 25
58 58 58 58 57 57 49 45 44 44 39 43 43 43 41 35 37 34 39 32 30 26 33 31 28 28 30 29 26 24 25 22 25 27 27 25 25 26 25 26 26 26 26 25 23
58 58 57 57 57 54 47 46 47 45 38 37 43 41 35 33 34 33 36 34 30 31 32 29 27 30 27 26 24 25 23 24 23 26 26 23 21 20 20 22 22 25 27 27 25
58 58 57 56 50 51 47 48 48 44 26 23 38 37 33 35 28 38 38 34 32 30 32 30 30 26 26 25 26 23 26 26 26 25 22 24 20 21 20 20 21 22 23 24 25
58 57 56 56 52 48 49 49 47 34 5 18 35 37 36 28 33 35 38 34 31 31 31 28 28 26 26 26 26 25 28 26 26 24 23 23 22 20 20 20 20 21 22 23 24
57 56 55 53 53 51 51 48 41 22 7 19 34 30 29 29 33 37 36 35 34 32 33 32 30 28 27 28 28 29 27 28 28 25 19 23 22 21 20 20 19 20 21 23 23
50 53 53 55 48 52 50 43 29 18 22 21 31 32 28 27 28 34 33 32 30 27 27 30 31 29 28 26 27 26 26 22 19 18 21 22 20 21 22 22 19 20 21 22 24
49 50 51 53 53 52 48 39 24 22 25 31 33 32 29 29 28 33 33 30 32 29 26 25 21 29 29 27 26 25 26 24 14 17 20 22 21 22 25 25 24 24 23 23 24
49 48 48 50 52 53 44 34 28 29 28 34 32 30 30 31 29 31 31 29 29 31 26 26 25 30 28 29 27 25 25 27 23 18 18 21 22 24 24 24 24 22 23 23 25
45 46 47 49 53 52 44 32 32 32 33 33 29 30 28 30 29 30 29 29 30 32 29 27 23 28 27 27 26 26 26 23 24 17 17 20 21 23 24 23 24 23 24 26 27
43 42 46 49 53 47 38 35 34 36 36 35 33 31 30 30 29 30 27 29 32 32 32 30 28 25 27 26 26 24 23 23 25 25 19 19 21 24 24 23 23 24 24 26 28
43 38 46 49 42 43 39 38 38 36 37 36 36 35 34 33 33 30 29 29 33 34 32 32 29 25 25 28 28 26 25 24 25 24 24 21 22 25 24 24 25 24 24 26 30
40 39 44 45 36 38 41 39 40 38 36 35 34 37 36 35 33 34 33 36 36 34 33 32 30 26 27 28 27 25 25 24 24 26 24 22 23 22 22 23 24 24 25 25 28
39 33 38 39 36 34 36 35 37 37 36 36 36 37 37 35 34 33 34 36 38 37 41 40 34 29 24 24 27 26 26 26 25 25 25 25 25 26 27 27 27 25 25 25 26
39 35 37 31 32 32 33 32 32 31 34 35 34 34 33 33 34 34 33 34 36 38 37 37 33 33 33 33 35 34 33 29 26 26 26 27 28 29 31 28 26 25 25 24 24
36 36 36 34 33 32 33 31 31 32 32 31 32 32 32 30 31 29 31 33 32 35 34 35 32 32 31 32 34 33 33 33 33 35 35 34 33 34 35 36 39 39 35 28 29
40 42 36 35 33 32 32 32 32 34 34 35 34 33 32 33 35 35 36 36 35 33 32 31 30 28 25 32 30 24 25 26 28 32 33 34 33 26 30 32 37 38 39 33 32
Lifted_Index
7 7 7 7 7 7 7 6 6 6 7 8 8 9 9 10 10 10 9 9 8 8 8 10 10 9 9 8 8 6 4 4 4 5 5 6 7 8 9 9 9 10 9 7 5
7 7 7 7 7 7 7 7 6 6 7 7 8 9 9 9 9 9 9 9 8 8 8 9 9 8 8 7 7 6 5 4 5 5 6 6 7 7 8 8 9 9 7 5 4
7 7 7 7 7 7 7 7 7 6 7 7 8 8 9 8 7 7 9 9 9 8 8 8 8 7 6 6 6 6 5 5 6 6 6 6 7 7 7 7 8 8 6 4 3
7 7 7 8 8 7 7 7 7 6 6 7 7 8 8 7 6 7 9 10 9 8 7 7 7 6 5 6 6 6 6 6 6 7 7 7 7 7 7 8 8 8 6 4 4
7 7 7 8 8 7 7 7 7 6 6 7 7 8 7 6 6 8 10 10 10 8 7 6 6 6 5 5 6 6 6 6 7 7 7 7 7 7 7 8 8 8 6 5 4
7 7 8 8 8 7 7 7 7 7 7 7 8 7 7 6 7 9 10 11 10 9 7 7 6 6 6 6 6 6 6 6 6 7 7 7 6 7 7 8 8 8 7 6 6
7 7 8 8 8 7 7 7 7 7 7 7 8 7 7 7 8 9 10 11 10 10 8 8 8 7 7 6 6 6 6 6 6 6 6 6 6 6 7 8 8 8 8 8 8
7 7 8 8 8 8 7 7 7 7 7 7 8 7 7 7 8 9 9 9 10 10 10 9 9 8 7 6 6 5 5 5 5 6 6 6 5 6 7 8 8 8 8 8 9
7 7 8 8 8 8 8 7 7 7 7 7 7 7 7 7 7 7 7 7 9 9 9 9 8 7 6 5 4 4 3 3 4 5 6 5 5 6 7 7 7 7 8 8 8
7 7 7 8 8 8 8 8 7 7 7 7 7 7 7 7 7 7 7 7 7 7 7 7 6 6 5 5 4 3 3 3 4 5 5 5 4 5 6 6 6 6 6 7 7
7 7 7 7 7 7 7 8 8 8 8 8 8 8 7 7 7 7 8 7 6 6 5 5 5 4 5 5 5 4 3 3 4 5 5 4 4 4 5 5 5 5 5 5 6
7 7 7 7 7 7 7 7 8 8 8 8 8 8 8 8 8 8 8 8 6 5 5 4 4 5 5 5 5 5 4 4 4 5 5 4 3 3 4 4 4 4 4 4 5
6 6 7 7 7 7 7 7 7 7 8 8 8 9 9 9 8 8 9 8 7 5 5 5 5 5 5 5 5 4 4 4 4 5 4 4 3 3 3 4 4 4 4 4 4
6 6 7 7 7 7 7 6 6 6 6 6 8 9 10 9 8 8 9 8 7 6 5 5 6 6 5 5 5 4 5 5 5 4 4 4 3 3 3 3 3 4 4 4 4
6 6 7 7 7 7 7 6 6 6 5 5 7 8 9 8 8 8 8 8 7 6 6 6 6 6 6 5 5 5 5 5 5 4 4 4 3 3 3 3 3 3 3 4 4
6 6 7 7 7 6 6 6 6 6 5 5 7 7 7 7 7 7 7 7 6 6 6 6 6 6 6 6 6 6 5 4 4 4 3 3 4 3 4 4 4 4 3 3 3
7 7 7 7 6 5 5 5 6 6 6 6 6 6 6 6 6 7 6 6 5 5 4 5 5 6 6 6 6 5 4 3 2 2 2 3 4 4 4 4 4 4 4 4 3
7 7 7 7 5 4 4 5 6 7 7 7 6 6 5 5 6 6 6 5 5 5 4 4 4 5 6 5 5 5 4 3 2 1 2 4 4 5 5 5 4 4 4 4 4
7 7 7 7 5 4 4 6 7 7 7 7 6 6 5 5 6 6 6 6 6 6 5 4 4 5 6 5 5 5 4 4 3 2 2 3 4 5 5 5 4 3 3 3 3
7 7 7 6 5 5 5 6 7 8 7 6 6 6 5 5 5 6 6 7 6 6 6 5 5 6 6 6 6 5 5 5 4 3 2 2 3 4 5 4 4 3 3 3 3
7 7 7 6 5 5 6 7 7 7 6 6 6 6 6 5 5 6 6 7 6 6 6 6 6 6 7 7 6 6 5 5 4 3 2 2 3 4 5 4 3 3 2 2 2
7 7 7 6 5 5 5 6 6 6 6 6 6 6 6 5 5 5 6 6 6 5 5 6 6 6 6 7 6 6 6 5 4 4 3 2 3 4 5 4 3 3 2 2 2
8 8 7 6 4 4 5 5 5 5 6 6 6 6 6 5 5 5 5 5 5 5 5 5 5 5 5 6 6 6 5 5 4 4 4 3 4 4 5 4 4 3 3 3 3
8 8 7 6 5 4 4 4 4 5 5 5 6 6 6 5 5 5 6 5 5 5 5 5 5 4 4 5 5 6 5 5 4 4 4 4 4 4 4 4 4 4 4 4 4
8 8 7 6 6 5 5 4 4 4 5 5 5 5 5 5 5 5 6 6 6 5 5 5 5 5 5 5 5 5 5 5 4 4 4 4 4 4 4 4 4 4 4 4 4
8 8 8 7 7 6 6 5 5 6 6 6 6 6 6 6 6 7 7 7 7 6 6 5 5 5 5 5 5 5 5 5 4 4 4 3 3 4 4 4 4 5 5 5 5
8 8 8 7 7 7 7 7 7 7 8 8 7 7 7 7 8 9 9 8 8 7 6 5 5 4 5 5 4 4 4 4 4 4 3 3 3 4 4 5 5 5 5 5 5